sat.trackr.live / text

‹ back to catalog

STARLINK-31070

NORAD 58639 · 2023-203X

PAYLOAD ACTIVE UNKNOWN

§ Identity

Operator
Country
US
Launch date
2023-12-23
Launch site
AFETR
Launch vehicle
Mass (kg)
RCS (m²)

Purposes: comms

External: N2YO · Heavens-Above · Gunter

§ Orbital elements

Epoch: 2026-09-20T09:19:51.843936Z

Period
94.27 min
Inclination
43.0050°
Eccentricity
0.0001164
Mean motion
15.27577238 rev/d
Perigee alt
482.3 km
Apogee alt
483.9 km
Semi-major
6,861.2 km
B*
2.0202e-5
RAAN
47.9185°
Arg perigee
256.2672°
Mean anomaly
103.8050°
Rev number
15,333

§ Raw data

STARLINK-310701 58639U 23203X   26263.38879449  .00000294  00000+0  20202-4 0  99962 58639  43.0050  47.9185 0001164 256.2672 103.8050 15.27577238153330

JSON: /api/v1/satellites/58639 · /tle

For live sub-satellite position, see the globe view (requires WebGL).

§ Visibility from observer

Set your observer location to see the next 7 days of passes ≥ 10°. The values pass through the URL so the page stays shareable.

No JS? Fill the form by hand. The geolocation button needs JavaScript.